Theta_e
320 320 320 321 320 321 321 320 324 325 325 325 323 326 325 324 327 326 326 326 325 327 327 327 328 329 330 332 333 334 334 336 337 338 342 339 334 334 331 327 327 323 319 318 316 314 313 314 311 311 314 316 318 322 324 323 325 328 331 332 332 333 334 334 332 331 328 325 322 320 318 315 312 310 312 311 312 312 312 313 312 313 312 312 311 311 311 311 311 311 312 314 317 317 314 311 311
320 320 320 320 321 320 320 321 327 331 331 326 324 325 322 322 324 326 328 326 327 329 331 329 329 331 331 331 332 333 335 336 335 337 338 336 335 335 332 328 328 324 320 319 316 314 313 313 312 313 317 320 322 324 324 325 327 330 332 332 333 333 333 333 332 328 325 322 319 318 315 311 310 313 314 312 313 312 312 312 312 313 312 312 312 311 311 311 311 312 312 317 320 317 312 313 314
319 319 320 320 321 319 321 321 326 330 326 327 331 327 321 324 327 328 326 325 329 330 330 329 330 330 331 334 334 334 336 336 335 336 336 335 336 336 333 329 329 325 320 319 316 314 312 311 312 313 317 320 322 323 324 326 329 331 333 332 333 333 333 332 328 323 320 320 317 315 312 310 309 312 315 313 312 312 311 312 312 312 312 313 311 312 311 311 311 312 313 318 321 316 312 315 317
319 320 319 320 320 320 326 325 332 332 323 326 329 325 325 329 329 326 324 327 330 327 328 330 332 331 332 337 336 335 336 335 335 336 336 336 336 335 333 330 331 325 320 319 317 315 312 311 311 313 317 321 323 322 323 327 330 332 332 332 333 333 332 328 323 318 317 319 316 311 311 313 312 312 316 313 311 311 311 311 311 312 313 313 312 312 311 310 311 311 313 317 319 316 313 313 315
320 320 319 320 320 321 326 325 330 328 322 328 324 323 330 332 329 323 323 327 325 325 329 331 335 332 332 335 334 336 337 335 335 336 336 336 336 335 333 331 331 325 321 319 317 315 312 311 310 313 318 321 322 321 323 327 330 332 332 331 332 331 330 325 319 315 314 318 316 311 316 322 319 316 314 311 310 310 311 310 311 311 312 313 313 312 310 310 310 310 311 313 317 315 312 312 313
320 320 319 319 319 319 324 323 325 326 326 329 326 328 328 327 326 322 322 323 322 326 329 330 333 332 333 334 334 336 335 335 335 336 336 336 336 335 333 332 331 325 321 320 317 315 312 311 310 312 315 317 319 321 323 325 329 331 331 330 330 329 326 321 316 314 313 315 314 316 323 325 324 321 318 315 313 310 311 310 312 312 311 312 314 313 310 310 310 310 310 312 315 314 312 312 313
319 321 319 320 320 319 326 326 328 333 325 321 327 331 325 322 322 320 321 322 324 325 327 329 329 332 335 334 334 335 334 334 335 335 336 336 336 335 333 332 331 324 321 321 317 315 312 311 310 310 311 313 316 321 321 323 329 330 329 329 327 326 322 318 313 311 314 316 316 318 324 325 324 322 321 320 315 310 310 310 311 312 311 312 313 313 311 310 309 309 310 311 313 312 311 312 312
319 320 320 323 324 323 329 325 328 333 319 313 321 326 323 322 321 319 321 322 324 325 328 329 325 332 335 332 333 335 334 334 335 336 336 336 336 335 333 332 331 326 323 321 318 315 312 311 310 309 310 311 314 318 318 321 328 327 326 326 324 322 319 314 310 312 318 320 319 319 323 325 320 316 317 315 311 309 309 310 309 310 309 310 310 310 310 309 309 309 309 310 310 311 311 312 313
318 320 319 323 325 325 332 327 322 322 318 317 319 322 322 322 321 319 319 320 323 326 328 327 323 329 334 332 334 335 334 335 335 336 336 336 336 335 332 332 332 330 326 321 319 316 313 311 310 310 310 310 311 314 316 321 327 327 325 320 318 318 316 311 310 313 317 317 317 321 323 322 317 314 316 311 309 309 308 309 309 309 309 309 309 309 310 309 309 309 309 310 310 310 311 312 313
319 320 317 322 327 323 326 328 324 319 318 320 319 321 322 321 320 317 319 320 322 325 325 325 324 329 334 333 334 335 335 335 335 336 336 336 336 335 332 332 332 332 329 323 320 318 314 311 311 310 309 309 310 311 314 320 325 326 323 317 313 313 313 310 309 311 312 310 312 319 321 319 319 319 317 310 309 309 308 309 308 309 309 309 310 310 311 311 311 310 310 310 310 311 311 312 312
320 317 318 327 331 323 323 330 331 325 318 317 318 320 321 321 318 317 318 319 320 323 324 326 330 331 332 333 334 335 335 335 334 334 335 336 335 335 333 332 332 332 330 325 321 319 315 312 311 310 310 309 309 309 312 316 320 321 319 315 312 311 310 309 309 309 309 309 309 315 317 316 317 318 314 310 309 309 308 309 308 309 310 311 312 312 313 313 313 312 312 311 311 312 312 312 312
319 319 329 334 329 325 327 329 327 325 319 319 320 319 321 319 317 317 318 319 320 324 325 326 330 331 331 332 334 335 336 335 334 333 334 336 335 335 333 332 332 332 331 325 322 320 316 312 311 311 310 310 309 309 310 312 314 315 314 313 312 310 310 309 309 309 309 310 309 311 312 311 312 311 310 310 309 309 308 308 309 310 311 313 313 313 313 313 313 313 313 312 312 312 312 312 313
319 322 332 328 324 326 325 324 322 323 320 320 319 319 321 316 317 318 317 320 322 325 325 325 326 329 332 332 334 335 336 335 335 333 334 335 335 335 333 332 331 332 331 327 323 321 318 314 311 311 311 310 310 311 310 310 311 312 312 311 311 310 310 310 309 309 309 310 310 309 309 309 309 309 309 309 309 308 308 309 310 311 313 313 314 314 314 313 313 313 313 313 313 312 312 312 313
320 321 328 323 322 326 324 322 319 321 322 321 317 317 320 316 317 318 319 321 321 322 323 324 324 328 333 333 334 335 335 335 335 333 334 335 334 334 332 330 330 331 332 329 323 320 319 316 313 311 310 311 311 310 311 310 310 310 310 310 310 310 310 310 309 309 309 309 309 309 309 309 308 308 309 308 309 308 309 310 311 313 314 314 315 315 315 315 314 314 313 313 313 312 312 312 312
319 319 328 328 323 324 323 321 319 321 323 321 316 317 318 316 318 318 319 321 319 319 321 326 325 327 332 332 333 332 334 336 334 333 334 334 333 333 331 330 330 331 332 330 324 321 320 318 316 313 311 310 310 310 310 310 310 310 310 310 309 309 309 309 309 309 309 309 309 309 309 309 308 308 308 308 308 308 309 311 312 314 315 315 316 316 316 316 316 315 315 314 314 313 313 313 313
320 319 328 329 323 323 323 319 319 322 320 317 315 317 316 315 317 318 318 318 319 320 323 329 327 325 325 325 322 325 333 336 333 334 333 333 333 332 331 330 331 332 333 332 327 322 320 320 318 317 314 312 311 310 310 310 310 310 310 310 310 310 309 309 309 309 309 309 309 309 308 308 308 308 307 308 308 309 310 312 313 314 315 316 316 317 317 317 317 316 316 315 315 315 315 315 315
319 320 328 328 323 325 325 320 318 323 323 316 314 316 316 315 316 317 317 317 322 326 326 329 328 325 324 322 318 324 333 335 334 334 333 333 333 332 332 331 332 333 333 333 330 324 321 321 320 319 318 315 313 312 311 310 310 310 310 310 310 310 310 309 309 309 309 309 308 308 308 308 307 307 307 308 309 310 311 313 314 315 316 316 316 317 317 317 317 317 317 317 317 317 317 317 317
319 325 328 326 328 329 327 323 316 319 322 315 314 316 316 316 316 316 318 320 324 327 326 327 328 327 325 324 321 326 333 334 334 334 333 333 332 332 331 331 332 333 334 333 332 328 322 321 320 320 320 318 316 315 313 312 311 311 311 311 311 310 310 310 309 309 309 309 309 308 308 308 307 307 307 308 309 310 312 314 314 315 316 316 317 317 318 318 318 318 318 317 317 318 318 318 318
321 326 324 327 333 327 320 319 314 315 318 314 315 316 315 316 317 317 320 324 325 327 328 327 328 327 325 325 323 327 333 334 334 333 333 331 331 332 331 331 332 332 333 334 334 331 326 321 321 321 321 320 319 317 316 315 313 311 311 311 311 310 310 310 310 310 309 309 309 309 308 308 308 307 308 309 310 311 313 314 315 315 316 317 317 317 317 318 318 318 318 318 318 318 318 319 319
319 320 323 329 327 319 317 316 315 316 316 314 315 315 315 316 317 317 320 324 323 325 328 328 329 327 325 325 324 329 334 335 335 334 332 330 329 330 330 331 331 332 332 334 334 333 330 325 322 321 322 322 321 319 318 317 315 313 312 311 311 311 311 311 311 311 310 310 309 309 309 308 308 308 308 309 311 312 313 314 315 315 316 316 317 317 317 317 317 318 318 318 318 319 319 319 319
318 318 324 326 317 317 320 316 315 316 315 315 315 315 315 315 317 317 319 323 322 321 321 323 325 324 325 325 325 331 334 334 335 334 332 330 328 329 330 330 330 330 331 334 334 333 332 329 326 323 322 323 323 321 319 319 318 316 314 312 312 312 312 312 312 312 311 311 311 310 309 309 309 309 310 311 312 313 314 315 315 316 316 317 317 317 317 318 318 318 319 319 319 320 320 320 320
317 318 320 318 314 317 318 315 315 315 315 315 314 315 316 315 316 317 319 322 321 319 317 317 318 320 324 323 324 331 334 335 335 334 332 330 328 328 329 330 329 330 332 334 333 333 332 332 330 326 324 325 325 323 321 320 320 319 317 314 313 313 313 313 313 313 313 312 312 312 311 310 311 312 312 313 313 314 315 315 315 316 317 317 317 318 318 318 319 319 319 320 320 321 321 322 322
317 318 316 316 315 316 316 315 315 315 315 315 313 315 316 314 314 315 318 319 317 317 316 317 317 320 321 319 322 329 332 333 334 333 332 329 328 328 328 329 328 330 333 333 332 333 332 331 330 329 327 326 326 325 322 321 321 321 320 318 316 314 314 314 315 315 315 314 313 313 313 312 313 314 314 315 315 315 316 316 317 317 317 318 318 318 319 319 320 320 320 321 321 322 322 322 323
315 317 316 316 316 315 315 315 314 316 315 315 315 316 314 314 315 315 316 317 316 316 315 316 318 321 323 319 319 324 328 331 331 331 330 328 327 327 326 328 329 330 332 333 332 332 331 330 329 329 329 328 328 327 324 322 321 321 321 321 319 316 315 315 316 317 317 317 316 315 314 314 314 315 315 316 316 317 317 317 318 318 318 318 319 319 320 320 321 321 322 322 323 323 324 324 324
314 316 316 316 315 315 315 315 314 315 315 315 315 314 314 314 314 314 316 317 315 315 315 315 318 322 323 320 319 323 327 329 330 330 330 328 327 327 327 327 329 330 331 331 332 332 331 330 329 328 328 328 329 328 326 323 321 321 321 322 321 319 317 316 317 318 319 319 319 319 318 317 317 317 317 317 317 318 318 319 319 320 320 320 321 321 322 323 323 324 324 325 325 325 326 326 326
314 314 316 315 315 314 314 314 314 315 314 315 315 314 313 313 313 314 315 316 316 315 315 316 318 322 323 321 320 323 326 328 329 329 329 329 329 329 328 328 329 330 329 330 330 331 330 329 328 326 325 327 327 327 326 323 321 321 321 322 322 321 319 318 318 319 320 320 320 321 320 320 320 320 320 320 321 321 321 321 321 322 322 323 323 323 324 324 325 325 326 326 326 326 326 326 326
313 312 314 314 315 314 313 313 314 314 314 313 315 314 312 312 313 315 316 315 315 315 315 317 318 321 322 322 321 322 324 325 326 328 329 330 330 329 328 328 328 328 328 329 329 329 329 329 327 325 325 325 326 326 324 322 321 321 322 322 322 321 320 320 320 321 322 321 322 322 322 322 322 322 322 323 323 323 324 323 324 324 324 324 324 325 325 325 326 326 326 326 327 326 326 325 325
312 311 313 313 313 314 313 313 313 314 314 313 314 313 312 313 313 315 316 314 315 316 316 317 319 320 321 322 322 322 323 323 325 326 327 328 328 327 327 327 326 326 326 327 327 328 329 328 326 325 324 325 325 324 323 322 321 321 322 322 322 321 321 321 322 323 323 323 323 323 323 323 323 323 323 324 324 324 324 324 325 325 325 325 325 325 325 326 326 326 326 327 327 327 326 325 324
311 311 313 314 313 314 314 312 312 313 314 313 313 314 314 314 314 315 314 314 317 318 317 318 320 321 321 323 324 323 322 324 325 325 324 324 324 325 325 325 325 325 324 324 325 326 327 327 326 325 324 325 324 323 322 322 321 321 322 322 322 322 322 322 323 323 324 324 324 323 324 323 324 324 324 324 325 325 325 325 325 325 325 325 325 326 326 326 326 326 327 326 327 326 326 325 324
312 310 312 315 314 315 315 312 313 313 313 313 313 315 317 315 313 314 314 314 318 319 319 319 321 322 322 323 324 324 323 324 324 322 322 322 322 322 323 324 325 325 324 324 325 325 325 326 326 326 325 324 324 323 322 322 321 321 321 322 322 322 321 322 322 323 323 323 324 324 324 324 324 324 324 325 325 325 325 325 325 325 325 325 325 326 326 326 326 326 326 326 326 326 325 324 322
313 311 312 316 316 321 318 311 312 313 313 313 313 315 319 317 313 313 313 313 317 319 319 320 321 323 323 323 324 324 323 323 322 322 321 321 321 321 322 323 323 324 324 324 324 324 325 325 326 326 325 324 324 323 322 321 322 322 321 321 321 321 321 321 321 321 322 322 322 323 323 324 324 324 324 324 325 325 325 325 325 326 325 325 325 326 325 325 325 325 324 324 323 323 322 321 320
312 312 317 316 315 323 320 311 311 314 313 311 312 315 318 318 313 312 313 314 317 318 318 320 322 323 323 323 323 323 322 321 322 322 322 321 321 320 320 322 323 323 323 324 325 325 326 326 326 326 325 325 324 323 323 322 323 323 322 322 321 322 322 321 321 321 321 321 321 322 323 323 324 324 324 324 325 325 324 325 325 325 325 326 326 325 325 324 324 323 323 322 321 321 320 319 319
313 314 320 319 315 318 318 312 311 312 312 312 312 315 318 316 311 311 312 313 318 320 319 320 321 322 322 321 321 321 321 321 321 321 321 321 320 319 319 320 321 322 322 323 324 324 325 326 326 326 325 325 325 324 324 324 324 324 323 323 323 323 323 323 323 323 323 322 322 321 322 323 324 324 323 324 324 324 324 325 325 325 325 325 326 325 325 324 323 323 322 321 321 320 319 319 320
314 313 316 319 316 315 316 316 312 310 312 314 313 313 317 315 309 310 311 313 319 321 319 319 319 319 320 320 320 320 320 320 319 318 318 319 318 317 318 318 320 321 321 321 322 322 323 325 325 325 326 326 326 325 325 325 325 325 325 324 325 325 325 324 324 324 324 323 322 321 321 322 323 324 324 324 324 324 324 324 324 324 324 324 324 324 323 322 322 322 322 321 321 321 321 322 322
315 315 315 317 315 314 316 317 313 312 313 314 314 313 315 315 311 309 310 312 318 320 319 318 319 319 319 319 319 319 320 319 316 315 315 316 316 316 317 317 319 320 321 321 321 322 324 326 326 326 326 327 327 326 326 327 327 327 326 325 325 326 326 325 325 324 323 322 321 320 321 322 323 324 324 324 323 323 322 323 323 322 323 322 322 322 322 321 320 320 321 321 321 322 323 324 324
316 317 318 319 317 315 316 319 314 312 314 314 314 314 314 315 314 310 309 311 314 317 317 316 318 320 320 320 320 319 319 317 313 313 315 315 315 315 315 316 317 319 321 322 323 324 326 328 328 327 327 327 327 327 327 327 327 327 326 324 324 324 324 324 324 324 323 322 321 321 321 322 322 323 323 323 324 324 323 323 323 324 324 322 322 323 323 321 320 320 321 321 322 324 325 325 324
312 314 317 318 318 316 317 319 314 310 313 315 313 314 314 314 315 310 309 310 310 311 312 312 314 317 319 320 319 319 317 315 313 314 315 315 315 314 315 315 316 318 321 323 325 325 326 327 327 326 326 326 326 326 325 325 324 324 323 320 320 321 322 323 322 322 322 322 323 324 324 324 323 323 323 324 324 324 325 324 324 327 326 322 324 326 323 322 322 321 321 321 322 325 325 325 324
310 312 315 316 316 316 315 315 314 311 312 315 314 313 314 314 314 310 308 309 309 309 310 310 312 313 315 316 316 316 315 314 314 315 315 315 316 315 315 315 316 318 319 322 323 324 325 325 324 323 323 324 324 323 323 322 321 320 320 318 318 318 320 321 320 321 321 322 324 325 326 327 326 326 325 324 325 325 325 325 324 325 324 321 323 324 322 323 324 323 322 321 321 322 323 324 323
311 312 313 316 316 315 314 313 314 312 312 317 316 313 314 314 314 310 307 309 310 310 311 312 313 313 313 314 314 314 313 313 313 314 314 315 316 315 315 315 315 316 317 319 321 324 326 325 322 321 322 321 321 322 321 320 320 320 321 320 319 319 319 320 320 321 321 322 324 324 325 326 326 325 325 325 326 326 325 325 323 322 322 323 324 322 323 325 326 325 324 322 320 321 323 325 324
311 312 314 316 315 315 315 313 314 314 312 315 316 315 316 315 314 313 309 309 311 311 312 312 312 313 314 313 313 313 313 313 313 313 314 315 315 316 316 315 315 316 317 318 320 323 325 324 322 321 320 319 319 320 320 320 321 323 324 323 322 321 320 320 321 321 321 321 322 322 324 325 324 324 324 324 325 325 324 324 325 324 324 326 328 326 325 326 327 326 326 325 323 322 324 325 325
311 313 314 316 317 316 316 315 314 313 311 313 315 317 319 318 316 316 313 310 310 311 311 312 312 312 313 313 312 313 313 313 314 314 314 314 315 315 315 315 314 315 316 316 317 319 320 320 320 320 319 319 319 319 320 321 323 324 325 325 324 322 321 321 320 320 320 320 320 322 323 323 324 324 324 325 328 328 326 326 329 328 326 326 327 329 327 326 327 327 326 327 325 322 323 323 323
311 313 314 315 317 316 316 316 314 314 314 315 314 315 324 327 320 315 314 311 310 311 309 310 313 312 312 313 313 313 313 313 314 314 314 314 314 314 314 314 314 314 314 314 315 316 316 317 318 319 320 319 319 319 320 322 323 324 324 324 323 322 320 320 319 319 319 320 321 321 321 321 323 324 325 328 331 329 325 326 330 330 329 327 326 326 324 323 325 325 324 323 321 319 318 318 318
311 314 314 314 315 316 317 316 316 319 319 314 312 315 325 327 321 316 314 313 313 312 309 309 312 312 313 314 314 314 313 313 314 314 314 314 314 314 314 314 313 313 314 314 315 316 316 317 318 319 319 319 319 320 322 323 324 325 324 324 323 322 321 319 319 319 319 321 322 322 321 321 323 324 324 325 326 328 324 323 327 329 329 326 321 320 319 318 320 321 318 316 316 315 314 314 314
312 317 316 313 314 317 318 316 319 322 317 313 313 316 319 319 318 316 312 313 314 312 311 309 309 312 314 314 314 314 314 313 313 314 314 314 314 314 314 313 313 313 313 314 315 316 316 316 317 318 318 318 319 320 322 323 324 325 326 325 325 324 322 322 321 321 321 322 322 323 323 324 323 323 323 320 322 326 324 320 321 323 323 320 316 315 315 315 315 315 313 313 312 312 313 314 313
315 319 316 313 314 317 318 316 319 319 315 316 317 314 316 320 323 317 311 313 315 315 315 311 309 311 313 313 314 315 314 314 313 313 314 314 314 314 314 314 314 313 313 314 314 315 317 317 318 318 319 319 319 320 321 322 324 325 326 326 326 325 324 324 324 324 323 323 323 322 323 324 324 323 322 320 320 321 320 318 317 317 317 316 314 313 313 312 312 312 312 312 311 311 312 311 311
312 314 315 316 317 318 316 317 319 315 314 318 319 314 314 321 326 319 312 313 315 317 317 311 308 310 312 313 314 315 315 314 313 314 314 314 314 314 315 315 314 314 314 315 316 316 318 319 319 319 319 319 320 320 321 322 324 325 326 326 327 327 326 325 325 325 324 324 324 324 324 323 323 321 320 319 318 317 316 315 314 313 313 313 312 312 312 312 312 311 311 311 310 310 309 309 309
310 315 318 317 321 321 319 323 322 315 315 319 319 316 313 317 324 319 314 315 316 315 316 313 308 309 311 312 314 315 315 314 313 314 314 314 314 314 315 315 314 315 314 315 316 317 318 319 319 319 319 320 321 321 322 323 324 325 325 326 327 328 327 326 325 325 324 324 324 324 324 323 321 320 319 317 315 314 313 312 312 312 312 312 312 312 312 311 310 310 309 308 307 307 306 306 305
311 320 321 317 322 322 319 323 319 314 319 318 316 315 312 314 321 319 315 316 315 313 315 316 310 308 310 311 313 314 314 315 313 314 314 314 314 314 314 315 315 315 315 315 316 317 318 318 319 319 319 320 321 322 323 324 325 325 326 327 328 327 326 326 326 324 324 324 324 324 323 321 319 318 317 315 313 312 312 312 312 312 312 312 311 311 310 309 307 307 306 305 304 303 303 302 301
312 318 317 315 319 317 317 320 316 316 318 312 310 313 312 313 317 316 316 315 314 310 310 312 309 308 310 310 312 314 314 314 313 314 314 314 314 314 314 315 315 315 315 316 316 317 317 318 318 318 318 319 321 323 324 325 326 326 327 327 327 327 326 325 325 325 324 323 324 323 321 319 317 315 314 313 312 312 312 312 312 312 311 310 309 308 307 306 305 304 303 303 302 301 301 300 299
312 314 314 317 318 315 316 318 315 317 317 311 309 312 314 316 316 317 317 314 312 307 306 309 308 309 311 311 311 313 313 314 314 314 315 315 315 315 315 315 315 316 316 316 317 317 317 317 317 316 316 318 320 323 325 325 326 326 327 327 326 325 325 325 325 325 324 323 323 322 320 318 315 313 312 312 312 312 312 312 311 310 309 307 306 306 305 304 303 303 302 301 300 300 299 299 298
314 315 316 320 322 320 319 318 319 321 317 312 309 313 320 320 316 316 312 308 308 308 309 310 309 310 312 312 311 312 313 314 313 314 314 315 315 315 316 315 315 315 315 316 316 316 316 315 314 314 314 315 318 322 325 326 326 326 327 326 325 324 324 325 325 324 324 324 322 320 318 316 313 312 312 312 312 312 311 310 309 308 306 306 305 304 304 303 302 301 300 300 299 298 298 298 297
314 316 316 317 320 325 321 315 321 323 318 315 312 316 323 318 313 312 308 306 307 309 311 311 311 312 312 312 312 311 313 313 313 314 314 314 314 314 314 314 314 315 314 314 314 314 314 313 313 313 313 313 314 317 322 324 325 326 325 324 324 324 324 324 325 324 323 322 320 318 316 313 312 312 312 312 312 311 309 308 307 306 305 305 304 303 302 301 301 300 299 299 298 298 297 297 297
314 313 316 315 314 323 321 312 314 317 316 317 313 315 320 316 313 316 314 313 312 310 311 310 311 312 311 313 313 311 313 313 314 314 314 314 314 313 313 313 313 313 313 313 313 313 313 312 312 313 312 312 311 313 317 320 322 323 323 322 323 324 324 324 324 322 320 319 317 315 313 312 312 312 312 311 310 309 307 306 305 305 304 303 303 302 301 300 300 299 298 298 298 297 297 297 296
315 314 315 314 311 319 321 316 317 316 315 320 316 313 317 316 316 320 316 314 317 316 313 310 310 312 312 313 313 312 313 314 314 314 314 314 314 313 313 313 313 313 312 312 312 312 312 312 312 312 311 311 311 312 314 317 319 320 321 322 323 323 324 323 322 319 317 316 315 313 312 312 312 312 311 310 308 306 305 305 304 303 303 302 301 300 300 299 299 298 298 297 297 297 297 296 296
312 313 312 314 315 317 316 315 319 316 314 321 318 312 314 316 318 322 315 314 319 316 315 315 314 311 311 313 313 313 314 314 314 314 314 314 314 313 313 313 313 313 312 312 312 311 311 310 311 311 310 311 311 312 315 317 319 320 322 322 323 323 322 321 319 317 316 314 313 312 312 312 312 310 309 307 306 305 304 303 303 302 301 301 300 300 299 298 298 298 297 297 297 296 296 296 296
309 310 309 313 318 318 316 315 318 316 315 320 317 312 316 318 319 322 317 317 318 313 316 320 314 310 312 313 314 314 314 314 314 314 314 314 313 313 313 313 313 313 312 312 312 311 310 310 310 310 309 310 311 312 315 318 319 321 321 321 321 320 319 317 316 315 314 312 312 312 312 311 310 309 307 305 304 303 303 302 302 301 301 300 299 299 298 298 297 297 297 296 296 296 296 296 295
312 312 311 312 313 314 317 316 316 319 320 321 316 314 323 324 316 317 316 316 316 313 317 317 309 310 314 313 313 314 314 314 314 314 314 313 313 313 314 313 313 313 312 312 311 311 310 309 309 309 309 309 310 311 314 316 318 319 318 318 317 316 315 315 314 313 312 312 312 312 311 310 308 306 305 304 303 302 302 301 301 300 300 299 299 298 298 297 297 296 296 296 296 296 295 295 295
315 314 314 315 315 316 318 314 314 316 315 319 317 315 326 326 314 313 313 314 313 309 310 310 307 310 313 313 314 314 314 314 314 314 313 313 313 313 314 314 313 313 312 311 311 310 310 310 309 309 309 309 310 310 311 313 314 315 315 315 315 315 314 313 312 312 312 312 312 311 309 308 306 305 304 303 302 302 301 301 300 300 299 299 299 298 297 297 297 296 296 296 296 295 295 295 295
Wind_Speed
3 2 1 1 3 3 3 3 1 2 3 1 2 1 2 2 2 1 1 0 1 3 6 9 11 11 8 7 8 8 5 3 3 3 3 5 17 22 18 16 14 11 10 9 9 9 10 10 10 10 10 10 11 11 10 10 10 10 9 8 8 7 6 5 3 3 2 1 2 4 5 5 8 9 11 11 11 12 12 12 12 12 12 12 12 12 12 11 10 9 9 9 8 7 6 6 7
3 2 1 0 2 2 2 3 1 3 4 2 3 2 2 2 1 4 5 2 5 8 16 18 16 14 12 12 11 8 5 3 1 5 8 15 22 20 17 16 13 11 10 9 9 9 10 11 11 11 11 11 12 11 11 12 11 10 9 9 7 6 5 3 2 3 2 2 5 7 7 8 10 10 12 12 12 12 12 12 12 12 12 11 12 12 12 11 10 10 10 10 9 7 5 6 7
2 2 0 1 1 2 1 3 1 1 3 1 4 3 1 2 4 5 6 7 14 16 15 13 12 10 8 9 6 4 3 2 6 12 15 20 23 20 18 16 13 12 10 9 9 8 9 10 11 11 11 11 12 12 12 13 12 10 9 8 7 6 4 3 2 4 4 4 7 9 9 10 11 11 12 12 13 12 12 12 11 12 11 12 12 12 12 11 10 10 10 10 9 6 5 6 8
2 3 1 0 0 2 3 3 2 3 0 3 3 4 2 5 6 5 7 15 17 10 6 6 7 7 7 7 6 5 4 4 11 17 19 21 21 20 19 17 15 12 10 10 8 8 8 9 11 11 11 12 13 12 13 13 12 11 9 8 7 5 3 2 3 4 6 7 9 9 9 11 11 11 11 12 13 13 11 11 10 11 11 11 11 11 12 10 10 10 9 9 8 6 4 5 6
2 3 1 0 1 1 3 2 2 3 2 4 2 5 5 5 7 6 10 14 10 3 4 6 4 6 9 7 4 4 5 9 14 18 21 21 19 20 19 17 15 12 11 10 8 7 8 10 11 12 12 12 12 13 14 14 12 11 9 7 7 5 3 2 3 5 7 8 9 10 10 11 11 11 11 11 12 12 10 10 9 9 10 11 11 10 11 10 9 8 8 8 7 6 4 3 4
2 4 2 1 2 1 2 0 1 2 5 5 3 5 5 7 8 9 10 9 6 6 7 7 8 9 9 8 6 8 8 8 13 17 21 21 19 19 19 17 15 13 11 10 9 7 8 10 12 13 13 12 12 13 14 13 12 11 8 6 6 5 4 3 4 6 8 8 8 9 10 11 11 11 11 11 11 11 10 10 9 9 10 10 10 10 10 9 8 7 7 7 6 5 3 3 3
3 4 2 3 3 2 3 2 3 3 4 6 5 5 7 9 11 10 9 7 6 7 7 11 15 12 6 6 7 7 6 5 11 17 19 20 19 19 19 17 15 13 11 10 9 8 8 9 11 12 12 12 13 13 13 12 12 10 8 7 7 6 4 4 5 7 9 8 8 9 10 10 10 10 10 10 10 10 10 10 10 10 10 10 10 10 9 9 8 7 6 6 6 4 3 2 3
5 4 3 4 2 4 4 1 4 4 3 4 4 6 12 13 14 10 6 5 4 6 11 16 14 8 2 3 4 5 5 7 12 15 17 18 19 20 19 17 15 13 11 9 9 8 8 8 9 10 10 11 13 13 12 12 12 9 8 8 7 6 5 5 6 8 10 10 10 9 9 9 9 9 9 9 10 10 10 10 10 10 10 10 9 9 8 8 7 6 6 5 5 4 3 2 2
5 3 3 4 1 2 2 2 3 3 3 4 3 7 14 15 14 9 5 3 5 11 15 15 7 4 4 4 5 7 8 9 11 13 14 16 19 20 19 17 15 13 11 9 8 8 8 8 9 9 9 10 12 13 12 12 12 10 8 7 7 7 6 6 6 7 9 10 9 8 8 9 9 8 8 10 11 10 10 9 10 10 9 8 8 7 7 7 7 6 5 5 4 3 3 2 2
4 3 3 3 2 1 3 3 3 2 4 4 3 8 13 15 13 8 6 5 9 13 12 10 5 8 9 6 7 9 10 10 11 12 14 16 18 20 19 17 14 11 10 9 8 7 8 9 9 9 9 10 10 11 13 13 12 10 8 7 7 7 7 7 7 6 8 8 7 6 7 9 8 7 8 9 10 10 9 9 8 8 7 7 6 7 7 7 7 6 5 4 4 3 2 2 2
3 4 4 4 3 1 2 3 4 4 4 3 1 8 13 16 11 6 6 7 9 11 11 8 6 14 12 5 6 9 12 12 11 12 14 16 17 19 19 17 14 11 9 9 8 7 8 9 9 9 8 9 9 10 11 12 11 10 7 7 7 7 7 7 7 6 6 7 6 5 6 8 8 8 8 9 10 9 9 8 8 7 7 7 7 8 8 8 7 7 6 5 4 3 2 2 2
2 2 4 3 2 2 4 2 4 5 4 2 2 8 14 14 8 7 8 9 10 10 11 9 11 16 8 2 7 10 14 13 11 11 14 16 17 18 18 17 15 12 11 10 9 8 8 8 9 8 8 8 9 9 9 10 10 9 7 6 6 7 8 8 7 7 6 7 6 5 6 8 8 8 8 8 9 9 8 8 8 7 7 8 8 9 9 9 8 8 7 5 4 3 3 2 3
2 2 5 3 3 2 3 2 3 3 4 3 4 8 14 12 9 13 13 10 11 8 8 10 16 16 5 3 9 12 16 16 13 12 15 17 17 18 18 17 15 14 12 11 10 9 8 8 9 8 8 8 9 9 9 10 10 9 8 7 7 8 8 8 7 7 7 6 6 6 7 8 8 8 7 8 10 9 8 8 8 7 8 8 9 9 10 9 9 8 7 6 4 3 3 3 3
2 4 5 2 1 2 4 1 1 2 3 5 5 9 14 10 9 18 16 9 8 7 8 12 19 13 5 6 9 17 19 18 16 14 17 17 17 18 17 16 15 15 13 12 10 9 9 8 8 8 8 8 8 9 9 10 9 9 8 8 8 8 7 7 7 7 6 6 6 7 7 7 7 7 7 8 10 9 8 8 8 8 8 8 9 9 10 9 9 8 7 6 5 4 4 4 4
3 3 4 3 2 1 3 2 2 5 4 4 7 11 15 10 9 18 17 11 7 8 10 14 19 8 5 11 10 21 23 20 19 17 19 18 17 18 17 16 15 16 14 13 12 10 9 9 9 8 8 8 8 9 8 8 8 8 7 7 7 7 7 7 7 6 6 6 6 7 7 7 7 7 7 8 9 9 8 7 7 8 8 8 9 9 9 9 8 8 7 7 7 7 6 6 6
2 2 4 2 1 2 3 2 2 3 5 5 9 13 12 8 12 16 13 11 8 12 14 14 19 6 7 14 6 19 27 21 21 19 21 19 18 17 16 17 16 17 15 14 13 11 11 9 9 8 8 8 8 8 7 7 7 6 6 6 6 6 7 7 7 6 6 6 7 7 7 7 7 7 8 8 8 8 7 7 7 7 8 8 8 8 8 8 8 8 8 8 7 8 8 8 8
0 1 4 2 2 3 3 4 4 3 5 5 10 17 11 5 13 13 8 11 12 18 16 11 19 12 9 10 4 19 29 23 23 22 22 20 20 19 18 18 18 18 17 16 15 13 12 11 10 9 8 8 8 7 6 6 6 6 5 5 6 6 7 7 7 6 6 6 6 7 7 7 7 7 7 7 7 7 6 6 6 6 7 6 7 7 7 7 7 8 7 7 7 7 8 8 8
1 2 3 2 3 4 5 7 7 4 4 8 14 19 14 8 13 12 8 11 13 17 15 11 18 15 12 9 8 24 29 25 26 24 24 22 22 22 21 22 21 20 18 18 16 15 14 12 11 10 8 7 7 6 6 6 5 5 5 5 6 6 7 7 7 7 6 5 5 6 7 7 7 7 7 7 7 6 6 6 6 6 5 5 5 6 6 6 6 7 7 7 7 8 8 8 8
1 2 2 3 5 5 6 8 10 6 5 12 16 18 16 14 18 16 9 8 11 11 10 11 15 15 13 12 17 29 29 28 28 26 26 24 25 25 24 24 24 22 20 19 18 17 15 14 13 11 9 6 5 5 5 5 5 5 5 6 6 6 6 6 7 6 6 5 5 5 6 7 7 7 7 7 6 5 5 5 5 5 4 4 4 5 5 5 6 6 7 7 8 8 8 8 9
1 2 1 5 6 5 6 8 12 10 7 13 17 14 14 17 21 17 10 9 8 9 11 13 14 16 16 17 25 32 31 30 29 27 27 26 27 26 26 26 26 25 22 20 19 18 17 15 14 12 10 7 6 5 4 5 5 5 6 6 6 6 6 6 6 5 5 5 5 5 5 6 7 7 6 6 5 5 4 4 4 4 3 3 3 4 4 5 5 6 7 7 8 8 9 9 10
1 4 4 4 4 3 9 11 12 12 10 15 17 11 10 17 20 17 14 9 5 14 20 19 19 21 20 23 31 34 33 33 31 30 28 27 28 27 27 27 26 24 21 20 19 18 17 16 15 14 12 9 7 6 5 4 4 5 6 6 6 6 6 5 5 6 6 5 5 5 5 5 6 6 6 5 5 4 3 3 3 3 2 2 3 3 4 5 6 7 7 8 8 9 9 10 10
2 5 7 5 3 3 8 9 9 10 11 14 14 11 13 17 16 18 19 11 8 18 24 21 20 22 21 26 33 35 35 35 33 33 31 29 28 27 27 26 26 23 21 21 20 19 18 17 16 15 14 12 10 8 7 6 5 4 5 5 6 6 6 6 6 6 5 5 5 4 4 5 5 5 5 5 4 3 2 2 1 1 1 2 2 4 5 5 7 7 8 9 9 10 10 11 11
3 5 7 7 7 6 7 6 7 10 14 18 17 14 17 16 10 18 24 18 12 15 20 20 18 20 21 25 33 36 36 36 35 34 33 30 28 27 27 26 26 23 22 22 21 19 19 18 17 16 15 14 12 11 10 8 7 6 5 5 5 6 6 6 6 5 5 5 5 4 5 5 5 5 5 5 4 3 2 0 0 1 1 2 3 4 5 6 7 8 9 10 10 11 11 12 12
4 5 7 9 10 11 11 9 7 11 17 21 19 14 18 16 8 14 23 22 12 8 14 19 17 20 24 27 32 34 35 35 35 33 31 29 26 24 24 25 25 23 23 22 21 21 20 19 18 17 16 15 14 13 12 10 10 9 8 6 6 7 6 6 6 6 5 5 5 5 5 5 5 4 4 4 3 2 2 1 2 2 2 3 4 4 6 7 7 8 9 10 11 11 11 12 13
4 6 9 8 9 12 12 10 8 11 15 18 16 12 17 16 8 11 21 21 12 7 11 17 17 22 27 29 31 33 35 35 34 33 31 29 25 23 22 23 25 25 25 23 22 22 21 20 19 18 17 16 15 14 13 12 12 11 10 8 8 7 7 7 7 6 6 6 5 5 5 4 4 3 3 3 2 1 2 2 3 4 5 5 5 5 6 7 8 8 9 10 11 12 12 13 14
4 7 10 9 9 10 9 8 8 10 11 15 13 8 12 12 6 9 20 20 13 10 12 17 18 24 29 29 30 32 34 35 34 33 32 30 28 27 25 24 26 27 25 24 24 23 22 21 19 18 16 16 16 15 15 14 13 12 10 10 9 9 8 9 8 7 7 6 6 5 5 5 4 4 3 2 2 3 4 4 4 5 6 7 6 7 8 8 9 10 10 11 12 13 13 14 15
13 14 12 12 12 10 6 6 7 10 9 13 12 5 6 9 4 6 16 20 16 13 15 19 21 24 29 29 30 31 32 33 33 33 32 32 31 30 27 26 27 25 25 26 25 24 23 23 21 18 17 17 17 16 15 15 14 13 11 11 11 10 10 10 9 8 8 7 6 6 6 6 5 5 5 4 4 5 6 6 7 7 7 8 9 9 10 10 11 11 12 12 13 14 14 15 16
21 18 11 10 10 9 7 4 6 9 6 11 11 4 1 4 4 7 13 18 18 17 18 22 24 25 28 29 30 31 31 31 31 33 33 33 33 31 29 28 27 25 25 26 25 24 25 25 22 20 19 18 18 17 16 15 14 13 13 12 11 11 12 12 11 10 10 9 9 8 7 7 7 7 7 7 7 8 9 9 9 9 9 10 11 12 12 12 13 13 13 14 15 16 16 17 18
22 14 7 7 6 6 8 5 6 8 4 10 10 3 3 4 7 9 13 19 17 17 20 24 27 27 29 30 30 31 31 31 33 34 33 32 31 30 29 28 26 25 25 24 24 25 25 25 24 22 20 20 19 17 16 16 14 13 13 13 11 12 13 12 12 12 12 11 11 10 10 9 9 9 9 10 10 11 11 12 12 12 12 13 14 14 14 15 15 15 15 16 16 17 18 18 19
17 7 3 4 5 5 7 6 6 6 4 11 11 3 6 8 13 12 13 21 19 18 22 25 28 29 30 31 31 31 31 32 34 33 31 31 30 28 28 27 26 25 23 23 24 25 25 25 24 23 22 21 19 17 17 16 15 14 14 13 13 14 14 14 13 13 12 13 12 12 11 11 11 11 11 12 13 13 14 14 14 14 15 16 16 17 17 17 18 17 16 17 17 18 20 20 22
8 4 3 1 1 5 5 4 7 5 4 10 10 4 6 8 16 15 14 22 22 21 24 26 29 31 32 32 32 32 31 32 32 32 31 30 29 28 27 26 26 25 24 24 24 24 24 23 24 23 22 20 19 18 17 16 15 15 14 15 15 15 15 14 14 13 12 13 13 13 12 13 13 13 13 14 14 15 15 16 16 17 17 18 19 19 19 19 19 18 17 18 19 19 21 23 24
2 3 4 1 4 5 7 3 10 7 3 7 7 3 6 8 13 16 16 22 23 23 25 27 30 31 32 33 33 32 30 31 31 32 32 31 30 29 28 27 27 27 26 25 24 24 24 23 23 22 22 21 20 18 17 16 16 16 15 15 15 15 15 14 14 13 13 13 13 13 14 14 15 15 15 16 16 17 17 17 18 18 19 19 20 20 19 19 19 19 19 20 22 21 20 20 17
2 3 4 1 4 3 5 3 8 7 2 4 4 2 4 6 6 12 18 23 24 23 24 26 29 30 32 33 33 33 31 31 32 32 32 31 30 28 27 27 27 27 26 25 25 24 24 23 23 22 21 20 19 19 18 17 17 16 16 16 16 16 15 14 14 14 14 14 14 15 15 16 16 17 17 17 18 19 19 20 19 18 19 20 21 22 20 19 20 20 20 20 20 19 17 15 13
3 1 3 3 3 3 2 4 5 5 3 4 5 3 5 6 4 6 17 25 25 24 24 26 29 29 31 32 33 33 31 31 31 31 30 30 29 27 27 27 27 27 26 25 25 25 23 22 22 21 20 19 19 19 18 18 17 18 18 18 18 17 16 15 15 16 16 17 16 16 16 17 18 17 18 18 18 18 18 19 18 16 17 18 19 20 18 18 19 19 18 16 14 15 16 16 17
2 2 3 3 2 3 4 3 4 6 4 5 6 5 10 10 6 4 14 22 24 25 26 26 28 29 30 31 33 33 32 31 30 28 27 27 27 26 26 26 27 27 27 26 26 25 23 22 22 21 20 20 19 18 18 18 19 20 21 21 21 20 19 18 17 17 18 18 18 17 17 17 18 18 18 18 17 15 13 14 13 13 14 15 15 15 15 17 17 15 14 12 11 13 15 17 19
4 5 5 4 4 4 4 4 5 5 5 6 7 7 11 11 8 5 11 17 21 23 23 23 24 27 29 30 32 32 32 31 28 26 27 27 26 25 25 25 26 27 28 27 27 25 25 24 23 23 22 21 19 19 20 20 21 22 23 23 23 22 20 20 19 19 19 18 18 17 17 16 15 16 16 15 13 12 11 12 12 13 15 14 13 14 17 16 13 11 12 11 12 15 16 17 19
8 4 4 6 5 5 5 4 5 1 5 7 8 8 9 10 9 6 10 14 16 20 20 21 23 25 28 31 32 32 32 31 27 27 28 27 26 25 25 25 26 27 28 29 28 27 26 25 25 24 23 22 21 21 22 22 23 23 23 23 22 22 20 20 20 19 19 18 18 17 16 16 15 14 13 12 12 12 13 13 12 13 16 13 11 15 16 12 10 10 11 12 15 18 18 15 16
9 6 4 6 6 5 5 3 4 2 4 6 4 5 9 10 9 5 7 10 15 22 22 23 27 27 29 31 33 33 32 31 30 29 29 28 27 26 26 26 28 29 29 30 30 28 27 27 26 25 24 23 23 22 22 23 23 22 21 20 19 19 19 19 18 17 17 17 17 17 16 16 17 16 15 14 14 13 14 15 13 13 14 11 10 13 11 9 10 11 12 13 14 16 15 12 15
8 5 4 5 4 3 3 2 4 3 3 4 1 4 9 11 8 5 9 12 17 24 25 28 30 30 32 33 32 32 31 32 32 31 30 29 28 27 27 27 28 28 29 29 30 29 29 29 28 26 25 25 24 23 23 23 22 21 20 18 17 17 16 16 16 16 17 17 18 18 16 16 17 16 16 15 14 14 15 14 12 10 9 8 9 9 9 10 12 11 11 12 12 13 14 14 16
6 5 4 4 3 3 2 3 2 3 1 1 2 3 6 7 6 5 13 18 19 22 24 27 29 29 31 31 31 31 31 31 30 30 30 30 29 29 29 29 28 28 29 30 30 30 31 31 29 28 27 26 25 24 24 23 22 21 21 20 18 18 16 15 16 17 17 18 18 17 16 16 15 14 13 12 12 13 12 11 9 8 7 10 12 11 11 14 14 13 13 13 13 15 16 16 15
6 5 6 4 3 5 3 2 1 2 2 1 4 2 6 6 5 7 11 13 16 20 21 24 28 30 30 29 30 31 31 30 29 28 28 28 29 29 29 29 28 29 30 30 30 30 31 31 30 29 28 27 26 25 25 24 24 23 23 22 21 20 20 19 18 18 17 17 17 16 16 15 13 11 9 8 10 10 11 12 14 12 10 11 13 13 13 14 13 13 14 14 15 17 17 17 17
6 6 8 7 6 6 3 4 5 2 3 3 2 1 6 5 5 9 7 3 9 14 16 23 29 29 29 31 31 31 30 30 30 28 26 26 27 28 28 29 30 31 31 30 30 30 29 29 30 30 29 29 28 27 26 26 26 25 25 25 24 23 22 21 19 18 16 15 14 14 14 13 11 10 8 9 12 13 14 15 15 15 14 15 15 15 15 15 14 14 16 17 17 19 19 18 18
6 6 8 9 7 5 5 7 6 4 5 4 1 5 6 6 5 8 4 3 8 9 10 20 28 27 29 33 33 32 31 31 30 29 28 27 26 26 28 29 31 31 30 29 29 30 30 29 30 30 30 29 29 28 28 28 28 27 27 26 25 24 23 21 18 16 15 14 13 12 11 11 10 10 12 13 14 16 16 15 13 14 16 17 16 16 17 17 17 17 17 17 17 16 15 15 17
6 4 7 9 7 7 7 7 6 3 3 2 2 4 4 5 6 6 1 2 8 8 9 16 23 28 33 35 34 33 32 31 30 30 29 28 27 26 27 28 29 30 29 29 29 30 30 30 29 30 29 29 29 30 30 30 29 29 28 27 25 24 22 20 17 16 15 15 14 13 11 12 12 13 14 13 13 16 17 14 14 15 16 16 15 13 13 12 13 13 14 13 13 13 13 15 16
6 3 4 6 6 7 7 7 4 0 1 3 3 3 3 5 6 5 2 2 7 9 11 13 21 31 35 36 35 33 32 32 31 30 29 28 28 26 25 25 27 28 28 29 29 29 29 29 29 29 30 30 30 30 31 30 30 29 28 27 26 24 21 19 18 17 17 15 14 14 12 13 15 15 16 14 13 15 15 13 12 12 13 12 10 8 7 6 7 7 8 8 9 10 10 12 12
5 4 4 3 3 3 3 4 4 2 2 7 7 6 4 5 6 3 1 2 6 8 9 11 20 30 33 34 36 34 33 33 32 31 29 29 29 27 26 25 25 27 27 28 28 29 29 29 29 30 30 30 30 31 31 30 30 29 28 27 25 23 21 20 20 19 18 16 15 14 15 16 17 16 14 13 11 11 10 9 8 6 6 5 4 3 3 4 5 6 7 8 8 9 9 10 10
6 6 5 6 4 4 3 2 4 2 5 8 7 7 5 5 6 4 4 5 7 8 8 9 15 23 28 33 35 34 33 33 33 32 29 29 30 30 29 28 27 27 28 28 28 29 29 29 30 30 30 31 31 31 31 30 30 29 28 27 25 24 22 21 21 21 19 18 17 17 17 17 17 14 11 9 8 7 6 5 3 2 2 1 1 2 3 5 6 7 8 9 9 9 10 10 11
5 4 4 3 3 3 3 3 2 4 8 6 3 4 4 5 5 4 6 6 6 8 8 8 10 15 21 28 33 33 32 32 33 32 31 31 31 32 31 30 29 29 29 30 30 30 30 30 31 31 31 31 32 32 32 31 30 29 27 26 25 24 23 22 23 22 21 20 19 19 18 17 16 12 10 8 7 6 5 4 3 2 1 1 2 3 5 6 7 8 8 9 9 10 10 11 11
4 3 6 4 1 1 1 2 2 5 6 3 1 2 3 6 7 7 8 9 8 9 11 11 11 14 16 19 26 30 30 31 32 32 31 31 31 32 32 31 31 31 31 32 32 32 32 32 32 32 33 33 33 33 32 31 30 28 27 26 25 25 23 23 22 21 21 20 21 20 18 16 13 11 9 8 8 7 5 4 3 2 1 1 2 3 4 5 6 7 8 8 9 10 10 11 11
7 5 7 7 3 4 6 4 1 4 4 2 1 1 3 4 6 9 12 11 9 10 14 15 15 16 15 13 19 25 28 30 31 31 30 29 29 30 30 31 32 32 33 33 33 34 34 34 34 34 34 34 34 34 33 31 30 28 26 26 25 24 23 22 21 21 21 21 21 20 17 14 12 11 10 10 9 7 6 5 4 2 1 2 2 3 4 5 6 7 8 8 9 9 9 10 10
7 3 4 6 5 5 6 4 3 4 2 2 2 1 4 3 4 8 11 12 11 10 14 16 16 17 15 13 15 22 28 30 29 29 28 28 28 28 29 31 32 33 33 34 35 35 35 35 35 35 35 35 35 35 33 32 30 28 27 26 25 24 24 23 22 21 22 22 21 18 16 14 13 12 11 10 9 8 7 5 3 2 1 2 2 3 4 5 6 7 8 8 9 9 10 10 10
5 1 3 5 5 5 3 3 5 4 2 1 2 3 4 4 6 7 6 10 11 10 11 12 14 16 14 14 16 21 28 29 29 28 27 27 27 28 30 31 33 34 34 35 36 36 36 36 36 35 35 35 34 34 33 31 30 29 28 27 26 26 25 24 24 24 23 22 19 16 15 15 14 13 12 11 10 8 6 5 3 2 2 2 2 3 4 5 7 8 8 9 9 10 10 10 10
2 3 5 5 3 7 5 2 0 3 2 3 2 3 5 3 5 7 5 6 8 8 9 9 13 14 14 16 16 20 26 28 28 27 26 26 26 27 28 29 31 32 32 33 33 33 34 34 35 34 34 33 32 31 31 30 30 29 29 28 28 27 26 26 26 25 23 19 16 15 17 17 16 15 14 12 10 8 6 5 4 3 2 2 3 4 5 6 7 8 9 9 10 10 10 10 10
4 4 6 3 2 4 4 2 2 3 3 4 0 3 4 1 3 5 5 5 9 9 8 8 10 13 17 19 17 19 23 25 26 26 25 25 24 24 24 25 26 26 26 26 26 28 29 30 31 31 31 30 29 28 28 28 28 29 29 28 28 28 27 27 25 23 19 17 17 18 19 18 17 15 13 11 9 8 6 5 4 3 2 2 3 4 5 7 7 8 9 9 9 10 10 11 11
4 4 3 3 3 3 1 3 2 1 3 4 3 3 3 4 5 4 3 7 10 9 6 6 9 14 19 20 18 19 23 25 26 25 25 23 22 21 20 20 20 21 22 22 22 23 25 26 27 27 27 26 26 26 26 27 27 28 29 29 29 29 28 26 23 20 19 19 20 21 20 18 17 15 13 11 9 8 7 5 4 3 3 3 4 5 6 7 7 8 9 9 10 11 12 12 13
2 1 1 1 3 5 3 2 4 4 4 3 3 2 3 5 6 5 7 10 10 8 5 6 12 18 21 21 21 22 24 26 26 25 23 21 19 18 17 17 17 18 19 20 21 22 23 24 25 25 25 25 25 26 26 27 27 28 29 29 28 27 26 24 22 21 21 23 23 21 20 18 16 14 13 11 10 9 7 6 5 4 3 3 4 5 6 7 8 9 9 10 11 11 12 14 14
2 2 4 3 0 1 2 1 3 4 3 3 2 2 5 7 5 8 12 12 9 8 7 8 14 20 22 22 22 23 24 25 24 23 22 19 17 16 16 16 16 17 18 19 20 21 22 23 23 24 24 24 26 27 27 28 28 27 27 26 26 25 24 23 23 24 25 24 23 21 19 18 16 15 13 12 11 9 8 6 5 4 3 4 5 6 7 8 8 10 10 11 12 13 13 14 15
3 4 4 4 3 3 2 4 1 2 2 4 4 3 7 6 5 9 12 7 3 6 7 9 14 19 22 22 22 22 23 23 22 20 19 18 16 16 16 16 16 16 17 18 20 21 21 22 23 24 24 25 26 27 27 27 27 26 25 24 25 25 26 26 27 27 26 24 23 21 19 18 16 15 14 13 11 10 8 6 5 4 4 5 6 7 8 9 10 11 12 12 13 14 14 15 16
Wind_Direction
214 231 301 36 3 349 353 15 64 355 62 99 317 199 224 218 199 155 170 289 56 25 80 111 113 120 119 117 127 108 87 140 171 146 179 168 146 155 156 151 151 143 134 128 138 145 148 146 148 151 144 138 136 133 133 138 140 138 139 138 134 140 137 120 117 88 43 343 75 84 86 96 104 102 99 102 100 98 100 101 102 105 108 109 111 110 110 112 112 111 108 106 103 100 100 97 95
223 232 279 255 4 334 304 23 57 343 37 8 296 179 248 305 137 179 209 201 142 118 99 99 96 93 92 100 101 86 60 18 169 135 134 146 145 151 154 151 150 141 134 131 137 142 147 151 157 155 145 139 136 133 133 136 138 141 142 140 141 145 141 132 126 85 90 92 93 98 103 110 110 103 101 104 104 101 100 100 100 103 106 109 113 115 116 115 113 110 109 107 99 99 99 93 90
209 191 255 230 328 342 350 35 64 65 57 289 275 249 257 151 180 207 210 154 131 120 100 92 80 68 79 95 75 76 76 33 133 131 133 148 150 151 152 151 149 143 136 134 135 142 151 156 161 155 148 144 139 136 136 139 141 144 143 144 150 146 143 147 106 88 106 110 103 105 109 114 114 106 99 103 106 106 103 103 106 108 108 111 114 116 118 118 115 112 113 108 99 101 98 82 75
180 153 108 105 213 14 64 47 112 120 132 225 254 268 230 172 191 209 168 138 130 120 103 90 66 52 72 95 82 86 104 135 143 138 144 156 156 151 149 151 152 146 137 134 133 140 149 155 154 150 149 149 146 141 141 144 145 146 148 152 153 146 141 120 86 98 121 122 111 111 115 117 117 110 103 104 105 105 104 103 105 107 106 108 111 113 115 117 114 112 112 108 101 100 95 72 61
158 126 133 260 198 59 85 63 102 114 237 195 183 267 236 188 177 180 157 148 152 149 131 108 84 81 78 76 80 106 129 146 150 148 151 158 157 150 149 152 153 147 137 129 127 133 145 152 150 152 154 153 153 147 146 149 147 151 155 156 152 150 148 112 97 112 128 124 112 112 113 111 111 110 106 105 105 105 100 97 96 96 98 99 101 105 107 109 109 110 112 110 102 98 97 72 54
148 111 120 102 103 106 107 156 197 206 238 168 164 252 220 191 172 162 155 160 172 150 134 116 119 114 82 60 76 114 124 142 155 153 152 155 158 153 151 154 153 146 135 127 123 129 140 149 151 158 162 160 160 155 153 151 148 153 159 159 155 159 158 135 124 129 134 128 119 115 111 106 107 108 106 104 107 107 98 93 89 87 90 89 88 93 100 101 103 108 113 114 107 107 109 80 56
154 130 115 104 81 33 99 172 216 236 241 172 176 208 191 189 171 157 149 145 148 145 131 126 125 112 88 79 95 114 113 137 152 149 150 155 160 156 154 156 154 146 136 129 123 127 138 145 151 159 166 166 167 164 158 152 149 154 162 166 163 165 158 130 128 138 137 129 127 121 110 108 109 106 103 100 104 106 98 94 87 84 86 86 86 89 98 104 108 113 116 120 121 122 112 80 51
144 131 87 103 54 25 88 183 240 218 228 209 220 186 179 180 166 162 161 147 150 147 132 135 128 100 111 137 123 141 125 135 148 150 153 157 161 158 158 159 156 149 139 132 123 123 132 137 147 156 163 167 171 172 163 152 150 156 167 173 172 166 147 123 129 139 134 128 126 121 112 110 109 105 104 102 103 104 98 92 87 84 86 87 88 90 97 105 111 114 120 124 129 127 111 88 47
125 116 80 95 108 32 35 310 279 237 256 257 244 181 175 174 167 164 152 121 138 142 142 148 136 109 157 144 128 147 142 142 152 157 159 160 163 161 160 162 162 155 142 133 126 120 125 132 144 154 162 168 173 175 170 156 150 157 166 165 164 156 139 130 135 133 125 125 124 118 116 112 106 104 106 107 107 106 100 94 89 86 86 85 86 87 90 95 104 111 117 122 123 121 111 92 46
99 94 103 83 111 28 339 295 286 260 264 263 203 181 175 172 174 172 148 125 143 144 151 162 133 132 144 129 128 147 152 153 159 162 163 162 163 164 163 167 169 163 151 141 131 121 125 133 142 154 162 169 173 173 172 165 156 158 159 145 139 140 139 139 139 128 118 125 130 121 118 115 108 105 106 110 111 111 106 100 98 95 92 89 89 88 88 90 96 102 104 111 110 104 96 71 31
82 74 103 78 77 124 240 257 276 269 282 308 211 190 180 175 174 170 145 130 150 150 153 161 129 133 131 121 145 155 161 164 168 162 161 163 165 167 167 171 174 174 168 152 140 131 129 135 142 152 158 163 167 168 169 170 168 165 164 146 133 134 138 142 139 132 124 129 142 132 115 114 110 106 107 114 119 118 116 114 110 106 100 92 88 85 85 85 86 89 89 92 89 77 65 39 10
102 60 80 93 135 192 205 227 270 288 321 333 199 194 182 177 175 167 149 141 158 156 161 169 152 142 118 105 157 161 167 168 174 168 161 163 165 167 169 174 177 180 176 163 154 143 135 138 145 150 152 155 158 159 160 164 170 174 174 161 144 141 142 142 142 141 136 136 144 131 113 108 103 103 102 112 122 124 125 122 115 104 96 86 81 81 80 80 80 81 80 78 72 57 43 26 8
135 139 90 119 191 158 166 198 275 317 330 261 194 189 184 183 192 177 152 146 160 155 173 179 161 150 115 138 160 169 172 171 175 173 165 162 165 168 171 176 180 181 177 172 164 153 144 138 145 152 153 154 152 151 151 152 160 167 170 165 154 150 146 142 146 149 143 137 134 122 114 111 104 105 102 108 120 127 127 118 109 96 89 85 81 81 79 78 76 75 75 75 71 59 44 31 20
131 144 113 136 158 121 152 161 263 177 254 250 189 184 186 198 208 176 152 143 173 170 175 180 168 152 126 145 168 181 176 174 173 172 169 164 167 170 174 179 183 183 179 178 172 162 151 142 146 153 159 160 158 155 153 154 156 162 164 165 162 153 144 138 145 146 140 134 128 121 118 119 115 113 111 115 121 125 123 112 104 97 94 91 86 81 77 75 72 74 73 73 69 59 47 35 28
143 127 100 119 55 338 183 189 175 163 228 225 176 185 183 206 211 173 160 156 187 190 167 172 172 157 171 174 188 187 177 174 172 169 169 165 167 171 178 184 188 187 183 182 178 173 160 149 152 154 161 165 167 165 160 160 162 167 168 168 162 148 141 140 144 142 140 137 132 129 127 129 126 123 119 120 123 121 117 109 106 105 102 95 89 82 78 77 74 75 72 69 63 54 46 37 32
141 128 68 101 128 259 221 200 118 131 239 205 168 177 173 205 195 171 170 168 171 175 165 170 178 187 202 188 206 181 173 175 171 167 169 166 168 170 179 187 189 188 187 186 183 181 171 161 162 160 162 165 171 172 168 170 170 173 172 170 161 151 149 147 149 149 150 149 143 140 136 135 131 126 123 120 119 117 114 112 112 108 104 97 92 87 80 78 75 72 69 67 63 56 49 40 34
81 125 66 106 173 211 209 179 169 166 226 209 172 174 165 181 186 176 172 174 164 165 171 181 187 207 219 203 225 174 172 176 172 169 170 169 170 172 180 188 189 188 188 189 188 186 180 173 173 171 168 166 167 165 166 171 172 175 176 174 167 165 162 155 158 159 160 156 150 147 140 137 133 128 126 123 121 121 120 115 112 106 101 97 92 90 82 75 71 67 63 60 57 51 48 39 32
319 119 103 181 184 198 192 181 194 171 180 194 182 178 171 163 178 175 158 165 160 165 186 197 194 214 223 212 189 174 174 177 176 174 174 174 175 176 182 188 191 191 190 191 191 191 186 181 180 181 179 172 163 158 160 165 167 173 176 177 174 175 170 165 165 164 164 161 155 152 146 142 137 135 132 131 130 124 121 115 109 104 99 95 88 86 80 72 64 59 54 48 44 39 38 33 25
118 113 138 213 199 207 201 187 193 189 186 185 183 183 180 175 172 168 160 167 162 167 195 197 200 215 209 193 178 175 177 179 181 180 179 179 179 181 185 189 193 194 194 194 193 192 190 188 187 188 188 183 172 164 163 164 169 173 175 177 177 179 176 173 171 168 168 163 161 158 153 150 146 144 141 136 130 122 118 116 112 107 101 94 82 74 69 61 53 46 41 35 31 27 24 21 15
203 134 226 238 213 231 237 221 216 220 207 178 181 188 183 177 172 170 171 172 183 194 189 184 197 201 188 179 175 175 179 183 185 186 185 184 183 185 187 190 194 196 196 197 196 193 192 193 194 194 194 196 193 185 178 173 177 181 183 181 180 183 184 183 178 175 177 174 170 167 165 160 155 149 143 136 128 124 120 120 118 113 103 86 69 55 46 41 37 30 26 21 18 14 10 8 3
237 166 207 240 181 225 250 244 244 235 214 189 178 175 180 174 172 175 166 154 231 222 201 196 197 189 179 175 176 177 181 185 188 191 191 188 187 189 191 194 197 198 197 198 199 197 195 196 199 200 199 202 206 204 197 192 194 195 195 191 188 189 190 191 185 180 183 185 181 177 178 170 163 154 147 141 132 129 125 126 123 109 91 66 46 29 22 17 16 15 11 5 4 1 358 356 352
278 237 236 251 182 216 262 255 256 230 202 189 173 169 178 169 175 184 172 168 225 220 210 209 202 192 185 178 177 178 183 188 191 194 195 193 192 193 196 199 201 202 199 201 203 201 200 200 200 203 204 207 209 211 210 210 213 211 209 204 201 199 194 190 184 180 180 185 188 188 192 185 175 165 154 150 142 137 128 126 116 95 58 35 19 6 360 357 360 359 356 352 350 349 347 345 342
274 270 261 270 249 241 275 274 256 216 185 180 180 180 172 162 185 194 188 196 214 221 217 213 207 200 193 182 179 181 186 191 194 196 198 198 197 197 199 202 205 205 203 205 206 204 204 204 203 204 207 210 210 211 213 215 218 219 220 218 212 210 205 195 185 180 176 180 189 194 198 198 188 174 161 157 152 148 142 147 319 347 346 352 346 346 342 341 344 344 343 339 338 339 339 338 335
264 272 283 287 270 256 268 280 259 214 195 188 182 175 171 171 187 194 199 208 218 241 216 207 206 195 188 182 183 187 189 193 197 199 200 202 202 202 203 205 207 208 207 208 208 208 209 209 208 207 209 213 214 214 216 217 219 222 223 224 219 217 215 205 196 191 184 180 186 188 189 192 192 185 173 166 164 165 168 235 288 303 304 315 325 328 325 325 328 329 329 327 328 330 331 330 328
245 245 274 283 274 266 266 272 253 213 199 186 176 173 181 183 181 195 206 209 219 242 205 198 198 189 187 187 189 190 191 195 199 201 203 205 205 206 208 208 208 210 212 211 210 212 214 214 214 214 213 214 217 220 223 221 220 224 226 226 227 224 221 214 208 203 197 192 191 190 186 190 194 199 204 190 185 219 238 258 281 294 298 304 312 311 308 312 314 314 316 317 318 319 323 323 321
262 259 268 271 276 283 273 263 231 203 192 177 170 170 181 184 181 212 214 209 220 230 201 193 191 188 189 191 193 192 194 197 200 203 204 206 208 209 210 209 210 212 215 215 214 216 217 219 220 219 219 218 219 223 225 224 223 226 227 226 229 227 222 220 219 214 212 209 207 207 205 210 211 214 230 230 231 266 275 276 278 283 293 297 298 295 295 298 299 302 306 308 311 313 318 318 317
301 302 285 267 268 281 277 267 212 191 190 181 171 154 176 180 178 226 217 211 217 215 196 191 190 191 193 194 195 196 198 200 202 204 205 207 209 211 211 211 213 214 217 218 217 218 220 223 225 223 223 222 223 225 225 224 224 224 225 226 227 223 219 223 225 226 229 230 229 230 230 232 235 240 248 254 258 267 275 278 277 280 284 285 287 287 288 292 294 297 301 304 308 311 314 313 311
311 310 298 274 267 270 255 256 199 181 184 189 168 126 175 171 200 229 208 203 210 205 192 190 192 194 196 197 197 199 202 203 204 206 208 209 210 211 211 213 213 214 217 219 220 221 222 225 228 227 226 226 226 227 226 224 223 221 222 224 225 221 219 224 225 228 236 240 243 246 247 248 250 255 257 260 262 263 268 271 274 278 280 280 282 284 286 289 291 295 300 303 306 308 309 309 308
314 302 285 292 310 283 238 217 198 187 184 184 152 102 272 222 222 223 201 198 200 198 194 191 193 197 198 199 200 201 204 205 206 210 212 212 213 213 213 215 216 217 219 220 222 223 224 226 228 229 229 229 228 227 226 225 223 220 220 223 224 222 220 225 226 227 232 237 245 250 254 258 259 261 262 264 264 264 266 267 270 272 272 275 278 281 284 287 291 294 299 301 304 305 303 302 301
309 291 224 281 333 298 231 191 192 196 183 171 152 181 254 238 227 217 199 199 194 192 194 193 195 198 199 201 203 205 206 206 209 212 213 214 216 216 217 218 219 222 223 222 224 223 224 226 228 230 230 230 229 227 226 224 222 221 221 221 221 222 222 225 229 229 231 234 242 249 254 259 260 260 261 263 265 267 269 271 273 274 275 277 278 282 285 287 289 292 296 298 298 297 294 295 295
298 278 221 198 183 274 264 178 166 176 194 172 155 218 252 251 232 218 203 201 198 194 195 196 198 199 201 203 205 208 208 209 212 214 215 216 217 218 219 220 221 223 225 225 225 225 225 227 227 230 232 232 231 229 227 225 224 224 224 222 221 223 224 226 229 231 235 238 241 245 250 256 259 261 262 264 265 266 269 272 274 275 277 279 281 284 286 288 291 295 296 291 289 289 290 292 295
266 239 268 13 163 267 302 209 176 171 195 172 153 221 256 271 238 214 206 202 200 200 199 199 200 201 204 206 208 211 212 213 215 216 217 218 218 220 220 220 221 223 223 224 224 225 226 227 228 230 232 233 233 232 232 231 231 231 230 229 227 227 230 231 232 235 238 242 245 246 248 252 256 260 263 266 269 270 271 272 273 275 277 280 281 281 284 289 291 293 292 292 296 301 302 301 301
283 210 239 233 164 246 310 262 206 181 136 176 186 225 241 281 252 204 204 203 201 202 203 203 204 206 207 209 212 214 215 216 218 218 217 217 218 220 220 220 222 223 224 223 222 222 223 225 227 230 232 233 236 236 236 236 237 238 238 236 235 235 236 237 240 245 246 247 248 249 250 253 257 259 262 265 267 270 274 276 277 279 280 280 280 283 288 291 290 290 293 300 307 314 322 327 326
294 315 233 235 184 197 251 285 248 185 145 205 215 239 240 268 302 202 201 201 200 202 206 207 208 210 211 213 215 217 219 220 221 220 217 216 217 218 220 221 221 223 225 224 222 221 220 223 227 229 231 233 237 238 239 241 242 243 242 240 240 241 241 242 244 248 250 252 250 249 251 253 256 258 261 265 267 272 278 282 284 287 286 283 283 290 297 299 297 295 298 307 313 322 332 337 335
214 204 223 255 235 221 214 239 231 171 170 215 196 232 255 263 294 244 205 201 201 204 208 211 212 213 214 216 218 221 223 226 225 223 219 218 217 217 219 220 221 222 224 223 222 221 220 224 228 231 232 233 236 239 241 243 245 246 244 241 239 240 241 241 242 245 249 252 252 252 252 254 258 261 263 267 272 277 280 282 286 292 296 293 295 303 309 312 310 300 299 307 318 326 329 331 331
218 202 197 198 208 239 226 235 248 170 170 220 202 217 245 249 264 244 205 205 208 211 213 215 216 216 217 219 222 224 227 230 229 225 223 221 219 218 218 220 221 222 223 224 223 222 222 224 229 232 232 234 235 236 238 239 240 242 243 240 237 237 238 239 239 243 248 252 255 257 257 257 260 262 265 272 280 287 286 286 294 305 307 307 310 313 314 320 325 315 309 312 319 321 316 320 326
256 244 214 204 201 230 229 242 286 205 169 222 217 221 248 250 258 245 202 205 218 222 220 221 222 222 222 223 225 228 231 236 234 230 227 225 223 221 219 219 221 223 224 224 224 223 224 224 228 230 231 232 232 232 232 232 233 234 237 239 238 238 239 241 242 244 250 254 257 261 265 268 270 270 272 276 282 290 294 294 299 302 301 302 301 304 312 328 342 333 322 318 319 318 317 322 323
248 248 239 227 210 226 234 227 299 340 181 236 229 228 261 256 255 253 196 197 222 225 220 221 223 225 228 229 230 233 237 240 238 235 231 228 226 222 221 219 219 222 223 223 224 224 225 226 228 229 230 231 231 232 232 231 232 232 237 241 243 245 245 247 250 252 256 258 257 259 261 265 268 272 274 278 285 291 291 289 290 289 290 294 289 294 316 341 343 331 317 316 318 315 319 326 318
233 235 230 233 220 237 282 289 326 8 189 258 257 209 254 259 257 242 207 213 228 228 224 223 224 224 229 231 233 235 238 240 239 237 235 231 228 224 222 221 219 221 222 224 225 225 227 228 229 229 229 230 231 232 233 232 234 236 242 247 250 253 252 252 253 254 256 255 255 254 253 255 259 263 266 269 275 277 277 282 293 297 294 296 288 295 322 323 317 312 302 308 313 307 309 310 309
231 215 204 240 219 183 237 257 313 20 123 233 150 203 267 275 286 267 234 232 235 237 235 234 232 229 232 234 236 237 237 238 238 237 236 233 230 227 224 223 221 221 222 223 225 225 227 228 229 229 228 229 229 231 233 234 237 239 244 249 252 252 249 246 246 245 245 246 248 250 252 255 260 261 258 259 268 276 282 288 297 303 299 293 283 282 302 302 295 292 287 290 295 298 302 302 303
241 215 204 231 211 200 214 186 134 28 354 89 100 13 300 266 267 270 247 233 234 241 241 243 242 238 239 242 241 240 239 238 238 237 236 235 232 229 226 225 224 224 223 222 223 223 225 226 228 229 229 230 229 230 233 235 237 237 239 243 245 244 240 238 239 238 240 244 247 249 251 252 253 252 251 273 286 284 285 283 280 282 284 286 279 273 281 287 285 283 279 278 284 290 294 295 295
256 227 210 211 206 206 188 136 117 101 259 268 102 229 283 281 254 250 248 230 234 240 238 241 245 242 242 244 243 241 240 239 238 236 235 235 234 231 229 227 226 226 225 224 224 223 224 226 227 229 230 230 230 231 233 235 237 236 237 238 239 239 237 236 238 240 245 250 251 250 247 241 237 238 244 262 265 256 259 265 266 268 267 265 266 263 266 271 272 273 273 274 280 282 283 288 292
255 235 206 206 198 177 162 152 142 164 226 272 86 183 255 308 269 246 256 280 255 250 245 244 245 243 241 242 242 241 239 238 236 235 234 234 235 233 230 228 226 226 226 226 226 225 225 226 227 228 229 230 230 232 234 236 238 239 239 240 241 242 242 242 244 247 248 246 246 247 246 243 238 236 238 239 239 245 254 256 249 249 255 260 265 265 265 267 269 274 278 281 284 283 285 292 298
248 238 191 194 183 172 176 167 167 197 218 303 18 154 226 277 256 261 312 288 272 265 258 252 246 242 240 240 241 239 238 237 236 235 233 232 232 233 232 230 229 228 227 227 227 226 225 226 227 229 230 231 232 233 235 237 239 240 241 242 243 243 244 246 247 248 246 243 244 241 240 246 248 245 247 243 233 240 252 255 247 245 253 266 277 279 277 277 278 285 291 297 301 301 301 301 301
247 217 168 184 178 173 180 172 171 163 175 251 274 159 202 261 267 303 359 257 273 264 249 246 243 240 239 239 238 237 236 235 235 236 234 232 231 233 234 234 232 230 228 228 228 228 228 228 229 230 231 233 233 234 235 237 240 242 243 243 243 243 244 243 243 244 244 244 245 243 240 243 248 254 261 259 244 241 251 257 255 254 259 270 280 287 294 301 305 309 312 317 321 317 314 311 310
218 151 97 72 68 88 128 160 140 75 221 227 219 183 205 263 270 292 350 242 254 255 249 242 241 240 239 239 237 235 234 232 233 235 234 232 231 232 234 234 233 231 230 230 229 229 230 230 231 232 233 233 233 234 235 236 239 240 242 242 240 242 242 239 238 239 242 243 240 244 247 248 256 264 262 254 246 246 251 251 248 249 253 262 276 297 321 329 329 333 334 335 335 331 330 330 331
141 116 77 51 33 50 60 67 94 112 241 237 217 192 200 255 264 235 212 219 218 228 251 254 248 246 241 239 236 233 232 231 232 234 233 232 231 231 232 232 231 231 230 230 230 230 230 231 233 234 234 233 233 233 234 235 236 238 238 238 238 239 239 237 235 235 237 238 238 242 247 255 267 268 252 240 240 238 229 221 212 203 209 236 321 334 336 333 334 336 337 338 338 337 336 337 337
147 122 111 76 358 30 39 7 77 195 237 258 247 188 181 232 255 232 229 247 224 213 237 252 260 261 250 240 234 230 231 231 231 232 233 231 231 231 231 230 230 230 230 231 231 232 232 233 234 235 236 235 234 233 233 233 233 234 234 235 236 238 237 235 234 235 234 233 237 243 249 261 267 254 236 231 224 211 199 185 174 177 182 334 334 336 334 334 337 337 338 340 339 338 336 336 336
194 159 145 158 253 89 180 234 195 220 239 281 289 180 195 236 250 254 260 266 245 222 231 247 267 278 271 252 236 229 228 229 230 230 231 231 231 231 230 230 230 230 230 231 232 233 234 236 237 238 238 238 237 235 234 233 232 232 232 233 234 236 236 235 234 236 237 236 240 246 253 260 252 229 214 209 200 190 180 172 177 199 233 308 322 331 332 334 337 336 337 337 336 335 333 333 334
195 185 173 181 172 160 203 219 230 247 254 299 298 221 246 268 265 250 247 253 249 240 248 258 267 274 279 268 241 229 226 225 226 227 228 228 229 229 229 229 230 230 231 232 233 234 236 237 239 240 241 241 240 238 236 234 232 232 232 233 234 233 233 234 236 237 238 241 243 249 255 250 227 206 197 191 184 177 178 184 198 221 260 308 320 327 329 333 332 332 334 333 333 333 332 333 333
204 210 163 177 173 175 204 205 196 218 244 301 300 216 195 200 251 244 243 267 277 265 262 264 264 266 271 266 241 226 222 220 220 222 224 226 227 229 230 231 232 232 232 233 234 236 237 238 239 241 242 242 241 239 237 235 232 231 231 232 233 232 230 230 233 235 237 240 244 248 245 227 205 193 186 181 178 182 188 197 208 223 260 289 307 320 324 327 327 329 331 332 333 331 333 334 333
217 168 139 204 195 153 151 182 180 169 154 277 242 226 214 207 267 280 277 290 286 266 264 261 254 257 259 256 241 224 219 217 217 220 223 226 228 230 232 234 235 235 234 235 235 237 238 239 240 241 241 241 240 238 236 234 231 229 229 229 229 229 228 226 227 230 233 237 241 238 221 204 193 185 181 181 184 188 192 196 204 218 243 274 300 315 321 326 327 330 330 330 330 329 329 331 330
171 163 199 231 169 119 117 196 104 91 173 239 197 238 296 306 282 308 337 309 290 268 262 252 242 243 245 247 239 223 217 215 218 223 226 231 233 235 236 235 236 236 236 237 237 238 238 237 238 238 237 237 235 234 233 231 229 227 226 225 225 226 226 226 227 230 232 233 227 214 200 191 186 182 181 185 188 188 190 195 205 225 246 277 303 317 324 329 328 327 327 325 324 323 323 325 326
136 192 205 196 117 106 113 171 6 51 209 263 273 217 274 247 245 323 350 295 276 264 253 253 245 232 232 238 231 219 216 215 221 225 228 234 237 238 238 236 237 238 238 238 237 236 234 233 233 233 232 231 230 229 228 227 226 224 223 222 221 223 225 227 230 231 229 221 208 198 190 184 181 181 184 186 187 188 193 199 207 225 253 282 307 320 323 324 323 321 320 318 318 319 320 321 321
184 223 197 144 177 208 151 162 187 177 221 280 317 259 250 199 214 289 276 235 249 250 239 249 247 230 227 229 222 215 214 215 221 225 229 234 236 236 235 234 236 236 236 235 232 231 229 227 227 226 227 227 227 226 223 222 221 219 220 220 220 222 225 227 228 224 215 204 196 190 184 181 182 184 184 184 186 189 193 198 205 223 256 282 303 313 313 314 315 314 315 316 317 319 318 318 317
194 241 220 165 176 189 189 166 165 181 212 252 299 303 264 227 217 220 229 233 235 231 220 227 234 231 229 227 219 215 215 217 222 226 231 233 231 231 229 230 232 231 232 230 226 225 223 221 220 218 218 220 222 223 221 218 216 216 218 220 221 223 224 222 217 208 200 193 189 186 182 182 184 184 184 184 188 190 193 200 208 225 254 278 296 303 306 310 312 314 316 316 316 316 315 316 316
172 181 196 207 127 144 185 173 120 137 174 194 218 274 263 248 213 199 227 241 229 212 215 228 232 232 232 229 224 220 219 221 225 229 233 233 229 228 226 226 227 224 224 223 220 219 217 216 215 212 212 213 216 218 219 218 217 217 219 219 219 218 212 206 199 193 190 187 185 184 183 184 184 185 186 187 190 192 195 203 212 230 256 277 293 301 307 312 314 315 316 314 314 314 315 316 318
170 198 203 189 156 113 168 234 217 106 159 170 164 243 268 257 212 206 226 239 215 205 219 237 241 238 235 232 229 227 226 227 230 232 237 237 233 229 226 226 225 222 220 218 216 213 212 212 209 206 206 208 212 214 214 215 214 214 214 211 207 202 195 190 188 187 186 184 184 185 184 185 186 187 188 189 193 196 199 206 217 236 261 281 295 304 310 314 315 315 314 314 314 314 315 317 318